Location: Guferjoch
(46.7462°N, 8.4506°E)
Time: 00:29:13
(UTC+00:00)

IRS-1D - Pass Details

Date: 14 July 2020
Orbit: 739 x 817 km, 98.6° (Epoch: 03 August)

Event Time Altitude Azimuth Distance (km) Brightness Sun altitude
Rises 02:18:24 0° 9° (N) 3,197 7.8 -12.0°
Reaches altitude 10° 02:20:45 10° 4° (N) 2,264 6.8 -11.8°
Maximum altitude 02:25:31 49° 291° (WNW) 949 3.9 -11.2°
Enters shadow 02:29:30 14° 220° (SW) 1,953 4.9 -10.8°
